Weather History for Kendall, FL

Change the Weather History Date:

Friday, December 21, 2012

  Actual Average Record
Temperature  
Mean Temperature 62 °F -  
Max Temperature 70 °F 77 °F 84 °F (2006)
Min Temperature 52 °F 60 °F 43 °F (2000)
Degree Days  
Heating Degree Days 3    
Growing Degree Days 12 (Base 50)    
Moisture  
Dew Point 52 °F    
Average Humidity 68    
Maximum Humidity 100    
Minimum Humidity 36    
Precipitation  
Precipitation 0.01 in - - ()
Sea Level Pressure  
Sea Level Pressure 30.07 in    
Wind  
Wind Speed 10 mph (NW)    
Max Wind Speed 22 mph    
Max Gust Speed 28 mph    
Visibility 10 miles    
Events      
Averages and records for this station are not official NWS values.
T = Trace of Precipitation, MM = Missing Value Source: NWS Daily Summary

Daily Weather History Graph

Daily Weather History Graph

Search for Another Location

Airport:

Trip Planner

Search our weather history database for the weather conditions in past years. The results will help you decide how hot, cold, wet, or windy it might be!

Date:

Astronomy

Dec. 21, 2012 Rise Set
Actual Time 7:03 AM EST 5:36 PM EST
Civil Twilight 6:38 AM EST 6:01 PM EST
Nautical Twilight 6:10 AM EST 6:30 PM EST
Astronomical Twilight 5:41 AM EST 6:58 PM EST
Moon 1:00 PM EST 1:13 AM EST
Length of Visible Light 11h 22m
Length of Day
10h 32m
Waxing Gibbous, 64% of the Moon is Illuminated
Dec 21
Waxing Gibbous
Dec 28
Full
Jan 4
Last Quarter
Jan 11
New
Jan 18
First Quarter

Hourly Weather History & Observations

Time (EST) Temp. Dew Point Humidity Pressure Visibility Wind Dir Wind Speed Gust Speed Precip Events Conditions
12:53 AM 64.0 °F 63.0 °F 96% 30.03 in 10.0 mi WSW 3.5 mph - N/A   Clear
1:53 AM 66.9 °F 64.9 °F 93% 30.02 in 10.0 mi WSW 4.6 mph - N/A   Clear
2:53 AM 68.0 °F 66.0 °F 93% 30.00 in 10.0 mi SW 4.6 mph - 0.01 in   Clear
3:53 AM 66.9 °F 66.0 °F 97% 30.00 in 10.0 mi SW 4.6 mph - N/A   Partly Cloudy
4:53 AM 68.0 °F 66.9 °F 96% 29.99 in 10.0 mi SSW 5.8 mph - N/A   Clear
5:53 AM 69.1 °F 68.0 °F 96% 29.99 in 9.0 mi SW 5.8 mph - N/A   Partly Cloudy
6:53 AM 70.0 °F 69.1 °F 97% 30.01 in 10.0 mi WSW 6.9 mph - N/A   Partly Cloudy
7:10 AM 69.8 °F 69.8 °F 100% 30.02 in 9.0 mi WNW 15.0 mph 19.6 mph N/A   Mostly Cloudy
7:14 AM 69.8 °F 69.8 °F 100% 30.02 in 10.0 mi NW 15.0 mph 21.9 mph N/A   Mostly Cloudy
7:27 AM 69.8 °F 66.2 °F 88% 30.03 in 10.0 mi NW 15.0 mph - N/A   Overcast
7:53 AM 68.0 °F 64.0 °F 87% 30.05 in 10.0 mi NW 13.8 mph - N/A   Overcast
8:53 AM 66.0 °F 57.9 °F 75% 30.08 in 10.0 mi NNW 17.3 mph 25.3 mph N/A   Overcast
9:53 AM 66.9 °F 54.0 °F 63% 30.11 in 10.0 mi NNW 17.3 mph - N/A   Mostly Cloudy
10:53 AM 66.0 °F 48.9 °F 54% 30.11 in 10.0 mi NNW 21.9 mph 27.6 mph N/A   Clear
11:53 AM 66.9 °F 46.9 °F 49% 30.10 in 10.0 mi NNW 20.7 mph 27.6 mph N/A   Clear
12:53 PM 66.9 °F 43.0 °F 42% 30.08 in 10.0 mi NNW 17.3 mph 26.5 mph N/A   Clear
1:53 PM 66.9 °F 42.1 °F 40% 30.07 in 10.0 mi NNW 16.1 mph 26.5 mph N/A   Clear
2:53 PM 68.0 °F 42.1 °F 39% 30.06 in 10.0 mi NNW 17.3 mph 26.5 mph N/A   Clear
3:53 PM 68.0 °F 39.9 °F 36% 30.07 in 10.0 mi NNW 19.6 mph 25.3 mph N/A   Clear
4:53 PM 66.0 °F 39.0 °F 37% 30.08 in 10.0 mi NNW 15.0 mph - N/A   Clear
5:53 PM 62.1 °F 37.9 °F 41% 30.10 in 10.0 mi NNW 12.7 mph - N/A   Clear
6:53 PM 57.9 °F 39.0 °F 49% 30.12 in 10.0 mi NNW 9.2 mph - N/A   Clear
7:53 PM 57.9 °F 39.0 °F 49% 30.13 in 10.0 mi NW 8.1 mph - N/A   Clear
8:53 PM 57.9 °F 34.0 °F 41% 30.16 in 10.0 mi NNW 15.0 mph - N/A   Clear
9:53 PM 55.9 °F 37.9 °F 51% 30.17 in 10.0 mi NNW 15.0 mph 25.3 mph N/A   Clear
10:53 PM 54.0 °F 39.0 °F 57% 30.18 in 10.0 mi NNW 17.3 mph 24.2 mph N/A   Clear
11:53 PM 52.0 °F 37.9 °F 59% 30.19 in 10.0 mi NNW 16.1 mph 25.3 mph N/A   Clear